SCP
0 0 0 0 0 0 0 0 0 0 0 0 0 0 0 0 0 0 0 0 0 0 0 0 0 0 0 0 0 0 0 0 0 0 0 0 0 0 0 0 0 0 0
0 0 0 0 0 0 0 0 0 0 0 0 0 0 0 0 0 0 0 0 0 0 0 0 0 0 0 0 0 0 0 0 0 0 0 0 0 0 0 0 0 0 0
0 0 0 0 0 0 0 0 0 0 0 0 0 0 0 0 0 0 0 0 0 0 0 0 0 0 0 0 0 0 0 0 0 0 0 0 0 0 0 0 0 0 0
0 0 0 0 0 0 0 0 0 0 0 0 0 0 0 0 0 0 0 0 0 0 0 0 0 0 0 0 0 0 0 0 0 0 0 0 0 0 0 0 0 0 0
0 0 0 0 0 0 0 0 0 0 0 0 0 0 0 0 0 0 0 0 0 0 0 0 0 0 0 0 0 0 0 0 0 0 0 0 0 0 0 0 0 0 0
0 0 0 0 0 0 0 0 0 0 0 0 0 0 0 0 0 0 0 0 0 0 0 0 0 0 0 0 0 0 0 0 0 0 0 0 0 0 0 0 0 0 0
0 0 0 0 0 0 0 0 0 0 0 0 0 0 0 0 0 0 0 0 0 0 0 0 0 0 0 0 0 0 0 0 0 -0 0 0 0 0 0 0 0 0 0
0 0 0 0 0 0 0 0 0 0 0 0 0 0 0 0 0 0 0 0 0 0 0 0 0 0 0 0 0 0 0 0 0 0 0 0 0 0 0 0 0 0 0
0 0 0 0 0 0 0 0 0 0 0 0 0 0 0 0 0 0 0 0 0 0 -0 -0 0 0 0 0 0 0 0 0 0 0 0 0 0 0 0 0 0 0 0
0 0 0 0 0 0 0 0 0 0 0 0 0 0 0 0 0 0 0 0 0 -0 0 0 0 0 0 0 0 0 0 0 0 0 0 0 0 0 0 0 0 0 0
0 0 0 0 0 0 0 0 0 0 0 0 0 0 0 -0 0 0 0 0 0 0 0 0 0 0 0 0 0 0 0 0 0 0 0 0 0 0 0 0 0 0 0
0 0 0 0 0 0 0 0 0 0 0 0 0 0 0 -0 -0 -0 0 0 0 0 0 0 0 0 0 0 0 0 0 0 0 0 0 0 0 0 0 0 0 0 0
0 0 0 0 0 0 0 0 0 0 0 0 0 0 0 -0 -0 0 -0 0 0 0 0 0 0 0 0 0 0 0 0 0 0 0 0 0 0 0 0 0 0 0 0
0 0 0 0 0 0 0 0 0 0 0 0 0 0 0 -0 -0 -0 -0 0 0 0 0 0 0 0 0 0 0 0 0 0 0 0 0 0 0 0 0 0 0 0 0
0 0 0 0 0 0 0 0 0 0 0 0 0 0 0 0 0 -0 0 0 0 0 0 0 0 0 0 0 0 0 0 0 0 0 0 0 0 0 0 0 0 0 0
0 0 0 0 0 0 0 0 0 0 0 0 0 0 0 0 0 0 0 0 0 0 0 0 0 0 0 0 0 0 0 0 0 0 0 0 0 0 0 0 0 0 0
0 0 0 0 0 0 0 0 0 0 0 0 0 0 0 0 0 0 0 0 0 0 0 0 0 0 0 0 0 0 0 0 0 0 0 0 0 0 0 0 0 0 0
0 0 0 0 0 0 0 0 0 0 0 0 0 0 -0 -0 0 -0 0 0 0 0 0 0 0 0 0 -0 -0 -0 0 0 0 0 0 0 0 0 0 0 0 0 0
0 0 0 0 -0 -0 -0 -0 -0 0 0 0 0 0 0 0 0 -0 -0 0 0 -0 0 0 0 0 0 -0 0 0 0 0 0 0 0 0 0 0 0 0 0 0 0
0 0 0 0 0 -0 -0 -0 -0 -0 -0 -0 0 0 0 0 0 0 0 0 0 0 0 0 0 0 0 0 0 0 0 0 0 0 0 0 0 0 0 0 0 0 0
0 0 0 0 0 0 0 0 0 0 0 -0 0 0 0 0 0 0 0 0 0 0 0 0 0 0 0 0 0 -0 0 0 0 0 0 0 0 0 0 0 0 0 0
0 0 0 0 0 0 0 0 0 0 0 0 0 0 0 0 -0 0 0 0 0 0 0 -0 -0 -0 -0 -0 -0 -0 -0 0 -0 0 0 0 0 0 0 0 0 0 0
0 0 0 0 0 0 0 0 0 0 0 0 0 0 -0 0 0 0 0 0 0 0 0 -0 -0 -0 0 0 0 0 0 0 0 0 0 0 0 0 0 0 0 0 0
0 0 0 0 0 0 0 0 0 0 0 0 0 0 0 -0 0 0 0 0 0 0 0 0 0 0 -0 -0 0 0 0 0 0 0 0 0 0 0 0 0 0 0 0
0 0 0 0 0 0 0 0 0 0 0 0 0 0 0 0 0 0 0 0 0 0 0 0 0 0 -0 0 0 0 0 0 0 0 0 0 0 0 0 0 0 0 0
0 0 0 0 0 0 0 0 0 0 0 0 0 0 0 0 0 0 -0 0 0 0 0 0 0 0 0 0 0 0 0 0 0 0 0 0 0 0 0 0 0 0 0
Wind_Speed_500mb
45 47 47 47 49 53 58 62 65 65 60 54 52 53 54 54 56 57 59 51 47 49 56 61 64 63 57 52 48 51 58 58 40 20 46 75 88 69 85 88 88 90 78
46 48 45 46 51 56 58 62 64 59 51 48 44 47 51 54 55 53 52 47 34 34 51 55 60 62 57 52 43 44 61 63 70 42 35 27 44 53 68 75 78 77 72
37 39 41 45 51 53 57 60 55 52 51 48 49 47 47 49 51 53 51 47 39 37 48 47 51 58 58 57 48 43 50 70 68 70 51 31 17 41 49 53 57 64 64
32 31 37 48 52 51 48 51 52 51 50 46 46 46 48 50 46 51 50 45 32 37 40 36 42 50 59 58 60 47 62 45 73 64 61 55 44 35 32 54 48 54 56
27 33 43 49 44 44 49 51 52 51 46 44 44 47 49 48 48 47 44 33 34 36 38 42 37 41 54 58 59 59 51 46 34 62 60 51 46 52 26 43 53 65 62
28 38 42 38 43 46 48 50 50 45 41 41 43 44 46 47 45 42 40 32 40 40 32 42 43 35 50 54 57 49 43 38 38 57 26 63 58 48 43 37 53 60 54
34 38 35 38 43 45 45 45 44 43 40 41 42 41 43 43 43 40 37 36 35 41 30 32 37 33 41 50 56 60 51 42 36 38 54 66 54 48 55 48 37 46 53
33 32 34 38 40 43 42 41 41 42 39 39 39 38 38 40 37 36 35 30 29 32 46 34 36 32 51 46 44 64 72 57 46 42 52 61 53 52 72 70 62 42 57
31 31 33 34 37 39 36 37 38 38 37 37 37 33 33 33 31 31 27 22 25 34 39 41 41 39 47 46 47 48 61 58 63 55 48 46 58 51 64 68 67 57 39
25 29 30 33 33 33 33 32 34 35 36 33 31 28 26 25 22 20 18 21 25 30 32 36 44 33 35 36 32 35 36 60 57 64 55 47 44 43 44 42 47 49 45
25 27 27 27 29 30 29 29 30 29 27 27 24 22 19 15 14 14 15 18 18 20 21 23 23 16 26 30 33 40 38 45 62 59 58 44 40 38 39 36 47 48 51
24 26 25 25 25 26 25 25 25 24 25 24 20 17 13 10 10 9 11 13 14 13 20 17 14 18 19 20 29 42 39 38 40 47 46 47 44 40 42 37 41 38 47
23 21 22 21 22 20 21 20 21 22 22 21 18 14 11 10 7 7 6 9 9 12 19 17 11 18 18 21 29 42 40 35 33 27 27 32 35 34 35 34 31 35 39
20 18 17 16 16 15 16 17 17 20 22 20 16 13 10 8 10 10 5 5 7 11 12 11 10 20 24 28 28 34 34 35 32 29 28 24 20 17 22 25 26 25 29
18 15 13 9 10 11 13 15 17 19 23 21 17 15 14 12 10 8 7 3 1 5 8 10 16 19 21 23 24 24 28 33 34 33 30 28 26 25 21 16 14 14 15
16 11 6 2 5 8 13 13 14 16 19 20 23 22 19 18 17 15 13 12 13 15 19 24 28 28 30 30 28 30 32 33 32 32 31 31 29 25 22 19 21 24 18
14 9 6 7 7 8 9 10 13 17 18 21 26 27 26 26 27 26 25 27 29 28 31 36 39 42 42 38 34 28 29 30 31 30 29 30 28 25 21 20 19 18 19
14 12 11 11 12 14 13 16 18 19 23 26 28 30 29 29 29 29 30 36 40 40 40 40 40 38 37 35 33 28 27 27 28 28 26 22 23 21 17 15 14 14 14
14 14 15 17 18 19 20 18 17 17 18 19 21 26 27 25 25 26 29 32 29 30 31 30 26 25 24 24 23 18 19 20 21 20 19 17 16 14 13 12 10 11 10
19 17 20 24 26 26 25 20 17 12 11 15 18 20 18 16 17 17 17 17 17 17 17 18 19 18 18 18 16 14 11 11 12 13 14 13 13 10 9 9 7 4 4
21 24 27 28 30 32 23 18 17 14 12 12 11 10 11 11 10 9 10 11 12 12 12 12 12 13 13 13 13 12 11 10 8 8 9 9 9 10 9 7 8 6 6
32 32 35 37 35 31 28 24 20 18 17 16 14 12 10 10 10 9 8 9 10 9 9 9 8 8 8 8 9 9 8 8 8 8 7 7 7 8 9 11 11 12 14
37 38 40 40 40 37 34 29 20 23 21 20 19 18 17 16 15 13 12 11 10 10 9 10 10 10 10 9 9 9 10 11 12 14 16 18 19 20 20 22 24 25 25
48 46 49 51 50 45 42 33 31 31 30 27 26 26 24 22 21 21 20 20 18 17 17 16 14 16 16 15 16 17 20 20 21 24 28 30 32 32 33 36 36 37 37
54 56 58 58 54 49 47 40 40 42 39 35 34 33 31 30 29 29 28 28 25 27 28 26 28 29 26 21 30 30 30 30 33 39 42 43 44 45 46 47 46 48 53
56 64 66 66 60 56 54 48 48 51 47 46 44 41 38 36 36 37 36 37 34 36 37 37 39 35 38 35 38 41 41 42 45 53 55 57 58 60 59 59 59 60 62
Wind_Direction_500mb
244 244 254 267 278 285 290 296 303 307 304 298 297 291 290 287 284 285 286 282 269 263 261 256 251 246 244 241 249 251 248 234 219 211 188 181 187 197 193 201 205 205 216
237 241 254 270 282 289 296 299 304 306 303 297 292 290 292 290 289 286 285 282 257 271 262 258 251 248 243 233 241 240 234 234 227 186 164 163 175 186 195 198 202 210 217
229 241 261 280 290 296 300 302 302 301 300 297 293 292 289 287 289 289 283 281 253 263 264 257 252 249 243 233 234 239 224 220 210 210 197 186 187 192 197 196 196 206 210
234 256 283 295 300 299 300 301 301 300 299 296 293 293 294 292 288 287 285 282 255 264 263 261 251 254 243 236 234 241 234 220 207 194 200 195 194 178 202 212 206 209 215
257 282 298 302 297 298 302 303 303 303 301 297 293 293 292 289 287 284 285 271 249 265 250 250 243 245 246 239 233 240 238 238 229 204 203 201 205 195 184 194 205 217 213
274 294 298 294 295 299 301 302 302 302 301 297 293 291 290 290 287 284 282 265 254 248 246 248 242 235 242 238 232 231 237 230 236 242 214 224 204 189 206 201 209 211 214
291 298 296 294 300 303 305 306 307 306 304 298 296 290 288 287 283 281 276 269 263 254 255 251 239 236 244 240 235 231 241 251 234 243 248 256 232 217 227 226 217 220 225
299 293 294 302 305 307 309 310 309 309 306 302 298 292 290 285 280 275 269 270 265 262 253 268 258 241 239 246 241 230 238 253 238 224 231 243 230 233 234 230 229 215 216
299 297 301 303 304 307 310 309 310 311 310 306 301 299 294 286 280 271 266 259 259 257 246 264 271 237 237 238 238 229 227 243 248 233 241 243 249 239 242 232 238 223 224
297 296 301 303 306 310 311 311 312 313 312 309 305 305 298 289 276 266 253 242 254 263 263 267 247 240 228 227 232 245 224 247 241 239 237 231 225 246 248 225 240 233 237
304 302 306 307 311 314 314 316 318 315 313 310 309 308 298 292 280 265 242 237 248 257 262 250 247 236 226 214 223 246 247 235 241 243 236 229 229 238 238 223 236 234 231
304 302 309 312 315 315 316 321 325 327 327 324 324 316 309 301 283 273 252 230 241 243 263 266 246 247 229 217 211 233 241 231 221 221 219 225 227 229 243 237 232 233 231
301 304 308 312 312 323 328 338 339 343 344 344 336 329 324 314 287 262 247 245 238 255 267 260 231 238 222 209 192 219 216 216 218 212 211 216 213 223 226 229 230 229 227
296 303 311 313 322 338 348 356 1 5 2 358 354 355 356 352 337 335 316 278 263 250 252 245 200 209 203 196 195 189 185 185 191 188 192 187 181 190 209 216 221 225 231
298 298 302 310 339 3 16 21 31 27 25 19 22 25 25 30 29 19 11 22 159 214 202 183 161 158 157 162 174 177 176 172 166 160 156 154 155 153 157 149 163 172 174
291 277 269 339 34 54 63 61 54 47 48 46 48 49 53 55 64 67 76 91 106 122 133 132 128 129 131 128 134 139 142 138 135 134 138 134 131 136 133 142 152 139 149
271 243 202 140 118 105 95 81 71 72 68 70 72 73 77 79 82 86 91 99 103 107 113 115 114 113 111 108 105 115 124 125 125 127 125 127 132 129 132 132 131 136 135
247 208 183 165 150 134 122 105 96 91 85 84 85 85 87 89 91 96 101 100 98 99 94 92 95 96 103 112 122 125 125 133 130 129 127 129 129 129 131 135 143 149 149
230 199 186 174 165 159 150 140 132 116 106 98 95 92 89 88 94 99 97 98 98 97 100 103 106 112 112 111 111 124 130 131 126 123 124 124 126 128 134 142 156 164 166
212 200 189 183 171 165 162 157 155 155 130 125 117 106 99 97 97 93 87 91 100 105 111 120 123 123 125 124 127 126 120 119 122 129 132 134 141 150 157 162 176 183 192
218 202 195 187 180 182 189 192 193 178 179 175 163 152 137 127 124 121 119 120 123 133 135 138 144 148 149 148 149 148 145 145 150 156 161 167 180 188 195 206 218 232 252
222 211 202 195 196 203 212 211 206 204 204 203 202 202 200 192 186 182 174 170 165 167 166 166 169 172 174 181 179 174 181 188 201 207 219 226 241 247 247 247 246 258 265
234 227 218 213 217 218 221 223 211 222 222 223 223 222 224 225 223 219 217 222 226 224 225 222 221 220 219 221 222 228 237 245 245 248 249 250 254 257 261 263 260 261 264
241 234 230 227 226 226 229 230 226 232 232 232 236 242 242 242 243 244 245 243 240 247 253 256 262 262 258 260 265 263 262 263 264 264 260 260 261 264 267 269 270 272 271
249 242 239 238 237 234 238 236 233 238 240 240 240 243 246 249 254 259 260 261 260 263 264 267 266 267 268 271 266 267 269 270 269 267 268 269 271 269 267 269 270 272 274
255 248 246 243 242 240 242 240 239 243 245 246 245 246 250 253 257 259 260 264 264 266 268 268 271 271 277 274 275 278 279 277 275 272 274 274 273 273 275 275 275 274 275
Wind_Speed_850mb
45 47 47 47 49 53 58 62 65 65 60 54 52 53 54 54 56 57 59 51 47 49 56 61 64 63 57 52 48 51 58 58 40 20 46 75 88 69 85 88 88 90 78
46 48 45 46 51 56 58 62 64 59 51 48 44 47 51 54 55 53 52 47 34 34 51 55 60 62 57 52 43 44 61 63 70 42 35 27 44 53 68 75 78 77 72
37 39 41 45 51 53 57 60 55 52 51 48 49 47 47 49 51 53 51 47 39 37 48 47 51 58 58 57 48 43 50 70 68 70 51 31 17 41 49 53 57 64 64
32 31 37 48 52 51 48 51 52 51 50 46 46 46 48 50 46 51 50 45 32 37 40 36 42 50 59 58 60 47 62 45 73 64 61 55 44 35 32 54 48 54 56
27 33 43 49 44 44 49 51 52 51 46 44 44 47 49 48 48 47 44 33 34 36 38 42 37 41 54 58 59 59 51 46 34 62 60 51 46 52 26 43 53 65 62
28 38 42 38 43 46 48 50 50 45 41 41 43 44 46 47 45 42 40 32 40 40 32 42 43 35 50 54 57 49 43 38 38 57 26 63 58 48 43 37 53 60 54
34 38 35 38 43 45 45 45 44 43 40 41 42 41 43 43 43 40 37 36 35 41 30 32 37 33 41 50 56 60 51 42 36 38 54 66 54 48 55 48 37 46 53
33 32 34 38 40 43 42 41 41 42 39 39 39 38 38 40 37 36 35 30 29 32 46 34 36 32 51 46 44 64 72 57 46 42 52 61 53 52 72 70 62 42 57
31 31 33 34 37 39 36 37 38 38 37 37 37 33 33 33 31 31 27 22 25 34 39 41 41 39 47 46 47 48 61 58 63 55 48 46 58 51 64 68 67 57 39
25 29 30 33 33 33 33 32 34 35 36 33 31 28 26 25 22 20 18 21 25 30 32 36 44 33 35 36 32 35 36 60 57 64 55 47 44 43 44 42 47 49 45
25 27 27 27 29 30 29 29 30 29 27 27 24 22 19 15 14 14 15 18 18 20 21 23 23 16 26 30 33 40 38 45 62 59 58 44 40 38 39 36 47 48 51
24 26 25 25 25 26 25 25 25 24 25 24 20 17 13 10 10 9 11 13 14 13 20 17 14 18 19 20 29 42 39 38 40 47 46 47 44 40 42 37 41 38 47
23 21 22 21 22 20 21 20 21 22 22 21 18 14 11 10 7 7 6 9 9 12 19 17 11 18 18 21 29 42 40 35 33 27 27 32 35 34 35 34 31 35 39
20 18 17 16 16 15 16 17 17 20 22 20 16 13 10 8 10 10 5 5 7 11 12 11 10 20 24 28 28 34 34 35 32 29 28 24 20 17 22 25 26 25 29
18 15 13 9 10 11 13 15 17 19 23 21 17 15 14 12 10 8 7 3 1 5 8 10 16 19 21 23 24 24 28 33 34 33 30 28 26 25 21 16 14 14 15
16 11 6 2 5 8 13 13 14 16 19 20 23 22 19 18 17 15 13 12 13 15 19 24 28 28 30 30 28 30 32 33 32 32 31 31 29 25 22 19 21 24 18
14 9 6 7 7 8 9 10 13 17 18 21 26 27 26 26 27 26 25 27 29 28 31 36 39 42 42 38 34 28 29 30 31 30 29 30 28 25 21 20 19 18 19
14 12 11 11 12 14 13 16 18 19 23 26 28 30 29 29 29 29 30 36 40 40 40 40 40 38 37 35 33 28 27 27 28 28 26 22 23 21 17 15 14 14 14
14 14 15 17 18 19 20 18 17 17 18 19 21 26 27 25 25 26 29 32 29 30 31 30 26 25 24 24 23 18 19 20 21 20 19 17 16 14 13 12 10 11 10
19 17 20 24 26 26 25 20 17 12 11 15 18 20 18 16 17 17 17 17 17 17 17 18 19 18 18 18 16 14 11 11 12 13 14 13 13 10 9 9 7 4 4
21 24 27 28 30 32 23 18 17 14 12 12 11 10 11 11 10 9 10 11 12 12 12 12 12 13 13 13 13 12 11 10 8 8 9 9 9 10 9 7 8 6 6
32 32 35 37 35 31 28 24 20 18 17 16 14 12 10 10 10 9 8 9 10 9 9 9 8 8 8 8 9 9 8 8 8 8 7 7 7 8 9 11 11 12 14
37 38 40 40 40 37 34 29 20 23 21 20 19 18 17 16 15 13 12 11 10 10 9 10 10 10 10 9 9 9 10 11 12 14 16 18 19 20 20 22 24 25 25
48 46 49 51 50 45 42 33 31 31 30 27 26 26 24 22 21 21 20 20 18 17 17 16 14 16 16 15 16 17 20 20 21 24 28 30 32 32 33 36 36 37 37
54 56 58 58 54 49 47 40 40 42 39 35 34 33 31 30 29 29 28 28 25 27 28 26 28 29 26 21 30 30 30 30 33 39 42 43 44 45 46 47 46 48 53
56 64 66 66 60 56 54 48 48 51 47 46 44 41 38 36 36 37 36 37 34 36 37 37 39 35 38 35 38 41 41 42 45 53 55 57 58 60 59 59 59 60 62
Wind_Direction_850mb
244 244 254 267 278 285 290 296 303 307 304 298 297 291 290 287 284 285 286 282 269 263 261 256 251 246 244 241 249 251 248 234 219 211 188 181 187 197 193 201 205 205 216
237 241 254 270 282 289 296 299 304 306 303 297 292 290 292 290 289 286 285 282 257 271 262 258 251 248 243 233 241 240 234 234 227 186 164 163 175 186 195 198 202 210 217
229 241 261 280 290 296 300 302 302 301 300 297 293 292 289 287 289 289 283 281 253 263 264 257 252 249 243 233 234 239 224 220 210 210 197 186 187 192 197 196 196 206 210
234 256 283 295 300 299 300 301 301 300 299 296 293 293 294 292 288 287 285 282 255 264 263 261 251 254 243 236 234 241 234 220 207 194 200 195 194 178 202 212 206 209 215
257 282 298 302 297 298 302 303 303 303 301 297 293 293 292 289 287 284 285 271 249 265 250 250 243 245 246 239 233 240 238 238 229 204 203 201 205 195 184 194 205 217 213
274 294 298 294 295 299 301 302 302 302 301 297 293 291 290 290 287 284 282 265 254 248 246 248 242 235 242 238 232 231 237 230 236 242 214 224 204 189 206 201 209 211 214
291 298 296 294 300 303 305 306 307 306 304 298 296 290 288 287 283 281 276 269 263 254 255 251 239 236 244 240 235 231 241 251 234 243 248 256 232 217 227 226 217 220 225
299 293 294 302 305 307 309 310 309 309 306 302 298 292 290 285 280 275 269 270 265 262 253 268 258 241 239 246 241 230 238 253 238 224 231 243 230 233 234 230 229 215 216
299 297 301 303 304 307 310 309 310 311 310 306 301 299 294 286 280 271 266 259 259 257 246 264 271 237 237 238 238 229 227 243 248 233 241 243 249 239 242 232 238 223 224
297 296 301 303 306 310 311 311 312 313 312 309 305 305 298 289 276 266 253 242 254 263 263 267 247 240 228 227 232 245 224 247 241 239 237 231 225 246 248 225 240 233 237
304 302 306 307 311 314 314 316 318 315 313 310 309 308 298 292 280 265 242 237 248 257 262 250 247 236 226 214 223 246 247 235 241 243 236 229 229 238 238 223 236 234 231
304 302 309 312 315 315 316 321 325 327 327 324 324 316 309 301 283 273 252 230 241 243 263 266 246 247 229 217 211 233 241 231 221 221 219 225 227 229 243 237 232 233 231
301 304 308 312 312 323 328 338 339 343 344 344 336 329 324 314 287 262 247 245 238 255 267 260 231 238 222 209 192 219 216 216 218 212 211 216 213 223 226 229 230 229 227
296 303 311 313 322 338 348 356 1 5 2 358 354 355 356 352 337 335 316 278 263 250 252 245 200 209 203 196 195 189 185 185 191 188 192 187 181 190 209 216 221 225 231
298 298 302 310 339 3 16 21 31 27 25 19 22 25 25 30 29 19 11 22 159 214 202 183 161 158 157 162 174 177 176 172 166 160 156 154 155 153 157 149 163 172 174
291 277 269 339 34 54 63 61 54 47 48 46 48 49 53 55 64 67 76 91 106 122 133 132 128 129 131 128 134 139 142 138 135 134 138 134 131 136 133 142 152 139 149
271 243 202 140 118 105 95 81 71 72 68 70 72 73 77 79 82 86 91 99 103 107 113 115 114 113 111 108 105 115 124 125 125 127 125 127 132 129 132 132 131 136 135
247 208 183 165 150 134 122 105 96 91 85 84 85 85 87 89 91 96 101 100 98 99 94 92 95 96 103 112 122 125 125 133 130 129 127 129 129 129 131 135 143 149 149
230 199 186 174 165 159 150 140 132 116 106 98 95 92 89 88 94 99 97 98 98 97 100 103 106 112 112 111 111 124 130 131 126 123 124 124 126 128 134 142 156 164 166
212 200 189 183 171 165 162 157 155 155 130 125 117 106 99 97 97 93 87 91 100 105 111 120 123 123 125 124 127 126 120 119 122 129 132 134 141 150 157 162 176 183 192
218 202 195 187 180 182 189 192 193 178 179 175 163 152 137 127 124 121 119 120 123 133 135 138 144 148 149 148 149 148 145 145 150 156 161 167 180 188 195 206 218 232 252
222 211 202 195 196 203 212 211 206 204 204 203 202 202 200 192 186 182 174 170 165 167 166 166 169 172 174 181 179 174 181 188 201 207 219 226 241 247 247 247 246 258 265
234 227 218 213 217 218 221 223 211 222 222 223 223 222 224 225 223 219 217 222 226 224 225 222 221 220 219 221 222 228 237 245 245 248 249 250 254 257 261 263 260 261 264
241 234 230 227 226 226 229 230 226 232 232 232 236 242 242 242 243 244 245 243 240 247 253 256 262 262 258 260 265 263 262 263 264 264 260 260 261 264 267 269 270 272 271
249 242 239 238 237 234 238 236 233 238 240 240 240 243 246 249 254 259 260 261 260 263 264 267 266 267 268 271 266 267 269 270 269 267 268 269 271 269 267 269 270 272 274
255 248 246 243 242 240 242 240 239 243 245 246 245 246 250 253 257 259 260 264 264 266 268 268 271 271 277 274 275 278 279 277 275 272 274 274 273 273 275 275 275 274 275